Weather History for Cheyenne, WY

Change the Weather History Date:

Friday, March 22, 2013

  Actual Average Record
Temperature  
Mean Temperature 29 °F 37 °F  
Max Temperature 38 °F 49 °F 73 °F (1910)
Min Temperature 19 °F 26 °F -9 °F (1898)
Degree Days  
Heating Degree Days 36 28  
Month to date heating degree days 637 660  
Since 1 July heating degree days 5570 5679  
Cooling Degree Days 0 0  
Month to date cooling degree days 0 0  
Year to date cooling degree days 0 0  
Moisture  
Dew Point 12 °F    
Average Humidity 46    
Maximum Humidity 69    
Minimum Humidity 23    
Precipitation  
Precipitation T in 0.04 in 0.78 in (1958)
Month to date precipitation 0.35 0.70  
Year to date precipitation 1.23 1.50  
Snow  
Snow T in 0.40 in 5.90 in (1974)
Month to date snowfall 4.6 7.8  
Since 1 July snowfall 43.0 44.3  
Snow Depth 0.00 in    
Sea Level Pressure  
Sea Level Pressure 29.84 in    
Wind  
Wind Speed 12 mph (NW)    
Max Wind Speed 26 mph    
Max Gust Speed 32 mph    
Visibility 8 miles    
Events Snow    
T = Trace of Precipitation, MM = Missing Value Source: NWS Daily Summary

Daily Weather History Graph

Daily Weather History Graph

Search for Another Location

Airport:

Trip Planner

Search our weather history database for the weather conditions in past years. The results will help you decide how hot, cold, wet, or windy it might be!

Date:

Astronomy

Mar. 22, 2013 Rise Set
Actual Time 6:58 AM MDT 7:13 PM MDT
Civil Twilight 6:31 AM MDT 7:41 PM MDT
Nautical Twilight 5:58 AM MDT 8:13 PM MDT
Astronomical Twilight 5:26 AM MDT 8:46 PM MDT
Moon 2:41 PM MDT 4:03 AM MDT
Length of Visible Light 13h 10m
Length of Day
12h 15m
Waxing Gibbous, 78% of the Moon is Illuminated
Mar 22
Waxing Gibbous
Mar 27
Full
Apr 2
Last Quarter
Apr 10
New
Apr 18
First Quarter

Hourly Weather History & Observations

Time (MDT) Temp. Windchill Dew Point Humidity Pressure Visibility Wind Dir Wind Speed Gust Speed Precip Events Conditions
12:53 AM 27.0 °F 19.5 °F 10.0 °F 49% 29.90 in 10.0 mi West 6.9 mph - N/A   Clear
1:53 AM 26.1 °F 15.0 °F 8.1 °F 47% 29.83 in 10.0 mi NW 12.7 mph - N/A   Clear
2:53 AM 24.1 °F 13.1 °F 6.1 °F 46% 29.84 in 10.0 mi NNW 11.5 mph 20.7 mph N/A   Clear
3:53 AM 24.1 °F 13.1 °F 6.1 °F 46% 29.83 in 10.0 mi NW 11.5 mph - N/A   Clear
4:53 AM 21.9 °F 13.4 °F 6.1 °F 51% 29.84 in 10.0 mi NW 6.9 mph - N/A   Clear
5:53 AM 19.9 °F 7.9 °F 7.0 °F 57% 29.85 in 10.0 mi NW 11.5 mph - N/A   Clear
6:53 AM 23.0 °F 12.4 °F 8.1 °F 53% 29.84 in 10.0 mi NW 10.4 mph - N/A   Clear
7:53 AM 24.1 °F 13.7 °F 9.0 °F 53% 29.86 in 10.0 mi NNW 10.4 mph - N/A   Clear
8:53 AM 28.0 °F 19.3 °F 8.1 °F 43% 29.84 in 10.0 mi NNW 9.2 mph - N/A   Clear
9:53 AM 32.0 °F 20.8 °F 3.0 °F 29% 29.82 in 10.0 mi West 17.3 mph 23.0 mph N/A   Clear
10:53 AM 36.0 °F 27.5 °F 1.0 °F 23% 29.78 in 10.0 mi WNW 12.7 mph - N/A   Clear
11:53 AM 37.0 °F 29.8 °F 6.1 °F 28% 29.79 in 10.0 mi SSW 10.4 mph 19.6 mph N/A   Scattered Clouds
12:53 PM 35.1 °F 27.4 °F 12.0 °F 39% 29.79 in 10.0 mi South 10.4 mph 19.6 mph N/A   Overcast
1:29 PM 30.2 °F 18.1 °F 17.6 °F 60% 29.74 in 8.0 mi West 18.4 mph - N/A   Overcast
1:35 PM 28.4 °F 18.5 °F 19.4 °F 69% 29.74 in 1.8 mi WNW 11.5 mph - 0.00 in Snow Light Snow
1:46 PM 28.4 °F 18.0 °F 21.2 °F 74% 29.75 in 1.2 mi West 12.7 mph - 0.00 in Snow Light Snow
1:53 PM 28.9 °F 18.6 °F 21.0 °F 72% 29.83 in 2.5 mi West 12.7 mph - 0.00 in Snow Light Snow
2:01 PM 28.4 °F 19.1 °F 21.2 °F 74% 29.74 in 4.0 mi West 10.4 mph - 0.00 in Snow Light Snow
2:19 PM 30.2 °F 21.9 °F 17.6 °F 60% 29.74 in 10.0 mi WNW 9.2 mph - 0.00 in   Overcast
2:53 PM 30.9 °F 22.2 °F 16.0 °F 54% 29.82 in 9.0 mi WNW 10.4 mph - 0.00 in   Overcast
3:53 PM 28.9 °F 19.8 °F 18.0 °F 64% 29.85 in 10.0 mi NW 10.4 mph - 0.00 in   Overcast
4:53 PM 28.0 °F 22.8 °F 19.9 °F 72% 29.87 in 10.0 mi NNW 4.6 mph - N/A   Overcast
5:53 PM 30.0 °F 25.2 °F 18.0 °F 61% 29.87 in 10.0 mi NNW 4.6 mph - 0.00 in   Overcast
6:53 PM 30.0 °F 21.1 °F 7.0 °F 38% 29.87 in 10.0 mi NNW 10.4 mph - N/A   Overcast
7:53 PM 28.0 °F 15.3 °F 10.9 °F 49% 29.88 in 10.0 mi NNE 18.4 mph 25.3 mph N/A   Overcast
8:53 PM 24.1 °F 12.0 °F 14.0 °F 65% 29.94 in 9.0 mi NNE 13.8 mph 21.9 mph N/A   Overcast
9:50 PM 21.2 °F 7.8 °F 15.8 °F 80% 29.83 in 3.0 mi NNE 15.0 mph 27.6 mph 0.00 in Snow Light Snow
9:53 PM 21.9 °F 8.2 °F 15.1 °F 75% 29.93 in 3.0 mi NNE 16.1 mph 26.5 mph 0.00 in Snow Light Snow
10:13 PM 21.2 °F 6.4 °F 14.0 °F 74% 29.85 in 8.0 mi NNE 18.4 mph - 0.00 in   Overcast
10:53 PM 21.0 °F 7.6 °F 15.1 °F 78% 29.94 in 9.0 mi NNE 15.0 mph - 0.00 in   Overcast
11:53 PM 19.9 °F 7.3 °F 15.1 °F 81% 29.96 in 6.0 mi NNE 12.7 mph - 0.00 in Snow Light Snow